Volver al catálogo

NIGERIASAT 2

ActivoCienciaSSO
NORAD 37789·PAYLOAD·🇳🇬 Nigeria

Lanzado Aug 17, 2011 desde Dombarovsky

Loading…

Próximos Pases (próximas 24 horas)

TLE

ActualizadoSource: Space-Track

Época: Sep 14, 2026, 14:57 UTC

1 37789U 11044B   26257.62299853  .00000030  00000-0  12950-4 0  9994
2 37789  97.8889 231.8707 0029362 193.7157 287.6241 14.70579904803713

Sigue NIGERIASAT 2 en tiempo real con AllMySat

Download on the App Store